Location: Malvern Link
(52.1333°N, 2.3000°W)
Time: 15:51:37
(UTC+00:00)

SO-50 - Pass Details

Date: 08 July 2022
Orbit: 585 x 698 km, 64.6° (Epoch: 11 August)

Event Time Altitude Azimuth Distance (km) Brightness Sun altitude
Rises 01:29:16 0° 271° (W) 3,013 ? -13.6°
Reaches altitude 10° 01:31:57 10° 285° (WNW) 2,119 ? -13.5°
Maximum altitude 01:35:55 25° 340° (NNW) 1,400 ? -13.3°
Drops below altitude 10° 01:39:57 10° 35° (NE) 2,161 ? -13.1°
Sets 01:42:43 0° 49° (NE) 3,087 ? -12.9°
